Tracking 19717 objects as of 25-Jun-2019
HD Live streaming from Space Station
objects crossing your sky now

CORVUS BC1

Track CORVUS BC1 now!
10-day predictions


NORAD ID: 42847
Int'l Code: 2017-042Y
Perigee: 591.4 km
Apogee: 605.8 km
Inclination: 97.6 °
Period: 96.5 minutes
Semi major axis: 6969 km
RCS: Unknown
Launch date: July 14, 2017
Source: United States (US)
Launch site: TYURATAM MISSILE AND SPACE COMPLEX (TTMTR)
aabbcc
Your satellite tracking list
Your tracking list is empty




NASA's NSSDC Master Catalog

Two Line Element Set (TLE):
1 42847U 17042Y   19175.66800130  .00000098  00000-0  14956-4 0  9992
2 42847  97.5655  69.5399 0010311  41.8520 318.3486 14.92074584105903
Source of the keplerian elements: AFSPC